Location: Newark
(44.3248°N, 23.7839°E)
Time: 17:38:34
(UTC+00:00)

STARS - Pass Details

Date: 28 April 2024
Orbit: 604 x 620 km, 98.1° (Epoch: 28 May)

Event Time Altitude Azimuth Distance (km) Brightness Sun altitude
Rises 00:04:36 0° 353° (N) 2,894 ? -27.0°
Reaches altitude 10° 00:08:12 10° 321° (NW) 1,978 ? -26.7°
Enters shadow 00:09:20 12° 306° (NW) 1,872 ? -26.6°
